[[{"header":{"parameterUnit":"m.s-1","parameterCategory":1,"la1":30.2991,"la2":30.254,"lo1":-89.0895,"lo2":-89.0444,"dy":0.0017,"dx":0.0017,"nx":28,"ny":28,"refTime":"2023-08-18T21:00:00:Z","depth":0,"parameterNumber":2,"parameterNumberName":"U-component_of_WINDS"},"data":[0,0,0,0,0,0,0,0,0,0,0,0,0,0,0,0,0,0,0,0,0,0,0,0,0,0,0,0,0,0,0,0,0,0,0,0,0,0,0,0,0,0,0,0,0,0,0,0,0,0,0,0,0,0,0,0,0,0,-2.3474,-2.3472,0,-2.3337,-2.3336,-2.3334,-2.3245,-2.3244,-2.3244,-2.3243,-2.3102,-2.3099,-2.3096,0,0,0,0,0,0,0,0,0,0,0,0,0,-2.3658,-2.3656,-2.3474,-2.3472,-2.347,-2.3337,-2.3335,-2.3334,-2.3245,-2.3244,-2.3244,-2.3243,-2.3103,-2.31,-2.3096,0,0,0,0,0,0,0,0,0,0,0,0,0,-2.3556,-2.3655,-2.3474,-2.341,-2.3403,-2.3338,-2.3335,-2.3333,-2.3245,-2.3244,-2.3243,-2.3243,-2.3105,-2.31,-2.3095,-2.3082,0,0,-2.308,-2.3078,0,0,0,0,0,0,0,0,-2.3562,-2.3549,-2.3421,-2.3414,-2.3406,-2.3307,-2.3349,-2.3249,-2.3245,-2.3305,-2.3243,-2.3242,-2.3171,-2.3161,-2.3137,-2.3076,-2.307,-2.308,-2.3077,-2.3075,-2.3074,0,0,0,0,0,0,0,-2.3569,-2.3554,-2.342,-2.342,-2.341,-2.3388,-2.3373,-2.333,-2.3244,-2.33,-2.3293,-2.3278,-2.3167,-2.3142,-2.3133,-2.3068,-2.308,-2.3076,-2.3073,-2.3071,-2.2992,-2.2993,0,0,0,0,0,0,-2.3586,-2.3561,-2.3424,-2.3416,-2.3484,-2.3386,-2.3368,-2.334,-2.3245,-2.3229,-2.3279,-2.3274,-2.3151,-2.3139,-2.3128,-2.3108,-2.3075,-2.3071,-2.3068,-2.2991,-2.2992,-2.2993,0,0,0,0,0,0,-2.359,-2.3575,-2.3429,-2.3486,-2.3466,-2.3384,-2.3352,-2.3338,-2.3312,-2.3229,-2.3213,-2.3269,-2.3149,-2.3135,-2.3095,-2.3102,-2.3068,-2.3064,-2.299,-2.2991,-2.2993,-2.3068,0,0,0,0,0,0,-2.3596,-2.3577,-2.3571,-2.3487,-2.3464,-2.3399,-2.3353,-2.3336,-2.3304,-2.3297,-2.3215,-2.3201,-2.3148,-2.3103,-2.309,-2.3094,-2.306,-2.2989,-2.2991,-2.2992,-2.3064,-2.3071,-2.3077,0,0,0,0,0,-2.3603,-2.3597,-2.3571,-2.3555,-2.3454,-2.3399,-2.3386,-2.3325,-2.3305,-2.3299,-2.3246,-2.3204,-2.3103,-2.3099,-2.3085,-2.3088,-2.2988,-2.299,-2.2992,-2.3061,-2.307,-2.3077,0,0,0,0,0,0,-2.3682,-2.3584,-2.3555,-2.3521,-2.347,-2.3385,-2.3374,-2.3336,-2.3288,-2.3283,-2.3209,-2.3191,-2.316,-2.3119,-2.3117,-2.3072,-2.3041,-2.304,-2.3099,-2.3106,-2.3113,-2.3123,-2.3056,0,0,0,0,0,-2.3696,-2.366,-2.3576,-2.3555,-2.353,-2.3457,-2.3431,-2.3389,-2.3332,-2.3309,-2.3253,-2.32,-2.3156,-2.3129,-2.3084,-2.3058,-2.304,-2.3053,-2.306,-2.3066,-2.3066,-2.3051,-2.3057,-2.2999,-2.2999,-2.2999,0,0,-2.3724,-2.3666,-2.3647,-2.3569,-2.3524,-2.3489,-2.3439,-2.3403,-2.3376,-2.3304,-2.3263,-2.3221,-2.3156,-2.3125,-2.3107,-2.309,-2.3078,-2.3068,-2.3073,-2.307,-2.3054,-2.3059,-2.3064,-2.3,-2.3,-2.3,0,0,-2.3756,-2.3708,-2.3686,-2.3642,-2.3575,-2.3527,-2.3522,-2.3444,-2.3413,-2.3371,-2.3317,-2.3284,-2.321,-2.3168,-2.3136,-2.3156,-2.3116,-2.3143,-2.3178,-2.3164,-2.3169,-2.3173,-2.3181,-2.3185,-2.3144,-2.3144,-2.3144,0,-2.3798,-2.3743,-2.3679,-2.3647,-2.3615,-2.3549,-2.3526,-2.3487,-2.3409,-2.3389,-2.3371,-2.3278,-2.323,-2.3188,-2.3194,-2.317,-2.3163,-2.3152,-2.3173,-2.3176,-2.3179,-2.3186,-2.3189,-2.3148,-2.3147,-2.3147,-2.3146,0,-2.3799,-2.3762,-2.3752,-2.368,-2.3646,-2.3619,-2.3552,-2.3526,-2.3488,-2.3442,-2.3402,-2.3343,-2.3286,-2.3273,-2.3234,-2.3226,-2.3217,-2.3187,-2.3155,-2.3189,-2.3195,-2.3197,-2.3153,-2.3152,-2.3151,-2.315,0,0,-2.3875,-2.377,-2.3768,-2.3735,-2.3658,-2.3628,-2.3599,-2.3544,-2.3524,-2.3473,-2.3448,-2.3388,-2.3361,-2.3325,-2.3282,-2.327,-2.3292,-2.3241,-2.3239,-2.3254,-2.3281,-2.3305,-2.3309,-2.3265,-2.3265,-2.3266,-2.3287,0,-2.3897,-2.3841,-2.3784,-2.3749,-2.3714,-2.3653,-2.3627,-2.3578,-2.3535,-2.35,-2.3453,-2.3412,-2.3379,-2.3357,-2.3343,-2.3292,-2.3296,-2.329,-2.3241,-2.324,-2.326,-2.3311,-2.3335,-2.3358,-2.3289,-2.3289,-2.3289,0,-2.3913,-2.3867,-2.3829,-2.3757,-2.374,-2.3719,-2.3665,-2.3632,-2.3576,-2.3546,-2.3508,-2.3462,-2.343,-2.3402,-2.3357,-2.3354,-2.3331,-2.3304,-2.3303,-2.3296,-2.3267,-2.3307,-2.3364,-2.3368,-2.3292,-2.3291,-2.3291,0,-2.3974,-2.3902,-2.387,-2.3844,-2.3759,-2.3746,-2.371,-2.3653,-2.3624,-2.3578,-2.3559,-2.3509,-2.3482,-2.3445,-2.3388,-2.3373,-2.335,-2.3317,-2.3325,-2.3326,-2.3322,-2.3323,-2.3377,-2.3307,-2.3307,-2.3307,-2.3307,0,-2.4004,-2.3983,-2.3897,-2.3878,-2.3853,-2.3789,-2.3766,-2.3725,-2.3675,-2.3647,-2.3591,-2.3566,-2.3491,-2.3458,-2.3413,-2.3384,-2.3372,-2.3347,-2.3335,-2.3352,-2.3356,-2.3336,-2.3333,-2.3308,-2.3307,-2.3307,-2.3307,0,-2.4067,-2.4009,-2.397,-2.3894,-2.3875,-2.3861,-2.3795,-2.3775,-2.373,-2.3696,-2.3684,-2.3613,-2.3572,-2.3511,-2.345,-2.342,-2.3398,-2.3379,-2.3417,-2.341,-2.3422,-2.3422,-2.3466,-2.3469,-2.3397,-2.3398,-2.3398,0,-2.409,-2.4073,-2.3996,-2.3974,-2.394,-2.3905,-2.3876,-2.3813,-2.3785,-2.3721,-2.3709,-2.3663,-2.3623,-2.3559,-2.3503,-2.3457,-2.3436,-2.3455,-2.3429,-2.3447,-2.3438,-2.344,-2.3439,-2.3461,-2.3462,-2.3463,-2.3464,0,-2.4138,-2.411,-2.4071,-2.4023,-2.3991,-2.3949,-2.3905,-2.3891,-2.3818,-2.379,-2.3747,-2.3717,-2.3656,-2.3612,-2.3559,-2.3522,-2.3482,-2.3473,-2.3472,-2.3489,-2.3513,-2.3502,-2.3435,-2.3472,-2.3471,-2.347,-2.347,-2.347,-2.4181,-2.4164,-2.4108,-2.4068,-2.4028,-2.3989,-2.3967,-2.392,-2.3884,-2.383,-2.3795,-2.3754,-2.37,-2.3625,-2.3591,-2.3559,-2.3542,-2.3541,-2.3541,-2.3542,-2.3548,-2.3518,-2.3549,-2.3549,-2.3548,-2.3548,-2.3548,0,-2.4227,-2.4188,-2.4152,-2.4093,-2.4062,-2.4027,-2.3977,-2.3953,-2.3919,-2.3872,-2.3834,-2.3787,-2.3744,-2.3686,-2.3639,-2.3625,-2.3606,-2.3615,-2.3616,-2.3608,-2.3565,-2.3571,-2.3632,-2.3632,-2.3632,-2.3632,-2.3632,-2.3632,-2.4247,-2.4216,-2.4183,-2.4134,-2.4095,-2.4055,-2.403,-2.3995,-2.3957,-2.3907,-2.3872,-2.3834,-2.3783,-2.3733,-2.3693,-2.3677,-2.3663,-2.3679,-2.3658,-2.3619,-2.3611,-2.3604,-2.3609,-2.3676,-2.3676,-2.3703,-2.3703,-2.3703]},{"header":{"parameterUnit":"m.s-1","parameterCategory":1,"la1":30.2991,"la2":30.254,"lo1":-89.0895,"lo2":-89.0444,"dy":0.0017,"dx":0.0017,"nx":28,"ny":28,"refTime":"2023-08-18T21:00:00:Z","depth":0,"parameterNumber":3,"parameterNumberName":"V-component_of_WINDS"},"data":[0,0,0,0,0,0,0,0,0,0,0,0,0,0,0,0,0,0,0,0,0,0,0,0,0,0,0,0,0,0,0,0,0,0,0,0,0,0,0,0,0,0,0,0,0,0,0,0,0,0,0,0,0,0,0,0,0,0,1.7289,1.7289,0,1.7277,1.7277,1.7277,1.7303,1.7304,1.7305,1.7306,1.7289,1.7288,1.7287,0,0,0,0,0,0,0,0,0,0,0,0,0,1.7332,1.7331,1.7289,1.7289,1.7289,1.7277,1.7277,1.7277,1.7303,1.7304,1.7305,1.7306,1.729,1.7288,1.7287,0,0,0,0,0,0,0,0,0,0,0,0,0,1.7316,1.733,1.7289,1.7301,1.7302,1.7277,1.7277,1.7277,1.7303,1.7304,1.7306,1.7307,1.729,1.7288,1.7286,1.7249,0,0,1.7281,1.728,0,0,0,0,0,0,0,0,1.7316,1.7314,1.7299,1.73,1.7301,1.7293,1.7286,1.7267,1.7303,1.7302,1.7306,1.7308,1.7289,1.7287,1.7282,1.7248,1.7247,1.7281,1.7279,1.7279,1.7278,0,0,0,0,0,0,0,1.7317,1.7315,1.7284,1.7299,1.73,1.7305,1.7305,1.7282,1.7288,1.7303,1.7304,1.7303,1.729,1.7284,1.7282,1.7247,1.7281,1.7279,1.7278,1.7277,1.7179,1.7178,0,0,0,0,0,0,1.7318,1.7315,1.7285,1.7284,1.7312,1.7304,1.7303,1.7294,1.7289,1.7289,1.7302,1.7304,1.7287,1.7284,1.7282,1.7235,1.7279,1.7277,1.7276,1.718,1.7179,1.7177,0,0,0,0,0,0,1.7319,1.7315,1.7285,1.73,1.7297,1.7301,1.7292,1.7293,1.7287,1.7288,1.7289,1.7295,1.7287,1.7284,1.7256,1.7235,1.7276,1.7274,1.7182,1.718,1.7178,1.7143,0,0,0,0,0,0,1.732,1.7315,1.7301,1.73,1.7296,1.7261,1.7291,1.7292,1.7285,1.7288,1.7282,1.7282,1.7288,1.7259,1.7255,1.7233,1.7273,1.7184,1.7181,1.7179,1.7146,1.714,1.7134,0,0,0,0,0,1.7321,1.7291,1.7301,1.7297,1.7279,1.726,1.7258,1.7266,1.7283,1.7268,1.7269,1.7282,1.7239,1.7256,1.7251,1.7229,1.7185,1.7182,1.7179,1.7148,1.7141,1.7134,0,0,0,0,0,0,1.7289,1.7291,1.7302,1.7271,1.7265,1.7265,1.7247,1.7259,1.7247,1.725,1.726,1.7259,1.7228,1.7226,1.7246,1.7191,1.7214,1.721,1.7193,1.7186,1.718,1.718,1.7271,0,0,0,0,0,1.7279,1.7264,1.7267,1.7239,1.7236,1.7242,1.7234,1.7241,1.7235,1.7233,1.7231,1.7223,1.7208,1.7197,1.7183,1.7147,1.7144,1.7129,1.7123,1.7118,1.7113,1.7091,1.7084,1.7166,1.7166,1.7166,0,0,1.7257,1.7256,1.7246,1.7233,1.7229,1.7212,1.724,1.7221,1.7208,1.7229,1.7203,1.7202,1.7194,1.7161,1.7146,1.7158,1.709,1.7114,1.711,1.7108,1.7087,1.7079,1.7072,1.7164,1.7164,1.7165,0,0,1.7207,1.7206,1.7182,1.7179,1.7173,1.7178,1.7172,1.717,1.717,1.7144,1.7159,1.7144,1.7117,1.711,1.7103,1.7052,1.7062,1.7047,1.7016,1.6994,1.6988,1.6982,1.6961,1.6953,1.7043,1.7043,1.7043,0,1.7179,1.7156,1.7168,1.7148,1.7141,1.7162,1.7136,1.7132,1.7122,1.7115,1.713,1.7096,1.7092,1.7057,1.7045,1.7039,1.7031,1.7046,1.6988,1.6982,1.6977,1.6957,1.6949,1.7041,1.7041,1.7041,1.7041,0,1.7121,1.7104,1.7085,1.7076,1.7067,1.7044,1.7052,1.7042,1.705,1.7052,1.7025,1.7021,1.7006,1.6999,1.7007,1.6964,1.6971,1.6987,1.701,1.6967,1.6948,1.6941,1.7038,1.7038,1.7039,1.7039,0,0,1.7048,1.7047,1.704,1.7035,1.7031,1.7018,1.6996,1.6982,1.6971,1.6964,1.6944,1.6922,1.6936,1.6928,1.6935,1.6917,1.6873,1.6934,1.6934,1.692,1.6823,1.6809,1.68,1.6882,1.688,1.6879,1.6822,0,1.6997,1.696,1.6971,1.6933,1.6916,1.6936,1.6917,1.6911,1.6913,1.6898,1.69,1.6883,1.6904,1.6899,1.6882,1.6882,1.6853,1.6887,1.686,1.6859,1.6858,1.6791,1.6776,1.6723,1.6815,1.6814,1.6813,0,1.6932,1.6923,1.6883,1.6881,1.6875,1.6857,1.6845,1.6831,1.6825,1.6827,1.6819,1.683,1.6806,1.6832,1.6799,1.6821,1.6812,1.681,1.6808,1.6803,1.6831,1.6781,1.6706,1.6697,1.6802,1.6803,1.6804,0,1.6879,1.6857,1.683,1.6826,1.6824,1.6811,1.6809,1.6804,1.6795,1.6784,1.6778,1.6765,1.6756,1.6745,1.6751,1.677,1.6715,1.6742,1.6714,1.6713,1.6699,1.6699,1.6618,1.6698,1.6698,1.6698,1.6698,0,1.6819,1.6793,1.6807,1.679,1.6761,1.6774,1.6745,1.6745,1.6741,1.6723,1.674,1.6723,1.6734,1.6717,1.6722,1.6691,1.6688,1.6688,1.6689,1.6684,1.6684,1.6676,1.6678,1.6696,1.6696,1.6697,1.6697,0,1.6754,1.6763,1.6734,1.6735,1.6734,1.6713,1.6712,1.6696,1.67,1.6677,1.6672,1.6677,1.6658,1.6664,1.6644,1.6647,1.6607,1.6615,1.6609,1.661,1.658,1.6582,1.6489,1.6476,1.6567,1.6566,1.6565,0,1.6713,1.6694,1.6693,1.6683,1.668,1.6664,1.6655,1.6667,1.6656,1.6648,1.6631,1.6614,1.6601,1.6569,1.657,1.6554,1.6559,1.6527,1.6556,1.6552,1.6554,1.6554,1.6551,1.652,1.6519,1.6518,1.6518,0,1.6639,1.6644,1.6631,1.6619,1.6608,1.6599,1.6591,1.6582,1.6593,1.658,1.6562,1.6551,1.6531,1.6512,1.6498,1.6494,1.6506,1.6509,1.6501,1.6495,1.6491,1.6489,1.659,1.651,1.6511,1.6512,1.6512,1.6512,1.6583,1.6566,1.6562,1.6547,1.6543,1.6535,1.6519,1.6521,1.6506,1.6491,1.6499,1.6477,1.647,1.6452,1.6447,1.6428,1.644,1.6429,1.6426,1.6422,1.6417,1.6497,1.6426,1.6426,1.6426,1.6427,1.6427,0,1.6507,1.6506,1.6491,1.648,1.6468,1.6484,1.6476,1.6463,1.6444,1.6438,1.6424,1.6402,1.6384,1.6384,1.6368,1.6352,1.6357,1.6347,1.6346,1.6345,1.6409,1.6416,1.6343,1.6343,1.6343,1.6343,1.6343,1.6343,1.6465,1.6437,1.6442,1.6411,1.641,1.6389,1.6382,1.6375,1.637,1.6344,1.633,1.6331,1.6327,1.631,1.6293,1.6294,1.6285,1.6272,1.6274,1.6333,1.6341,1.6349,1.6355,1.6271,1.6271,1.6211,1.6211,1.621]}]]